Location: Nagoya
(35.1814°N, 136.9064°E)
Time: 00:30:41
(UTC+09:00)

Envisat - Visible Passes

Search period start: 30 September 2022 00:00
Search period end: 10 October 2022 00:00
Orbit: 764 x 765 km, 98.2° (Epoch: 28 September)

Date Brightness Start Highest point End Pass type
(mag) Time Alt. Az. Time Alt. Az. Time Alt. Az.
30 Sep 5.2 03:15:15 10° NE 03:19:13 23° E 03:23:09 10° SSE visible
30 Sep 3.6 04:53:39 10° N 04:58:14 35° WNW 05:02:47 10° SW visible
01 Oct 2.9 04:16:20 10° N 04:21:26 83° WNW 04:26:30 10° SSW visible
02 Oct 4.2 03:39:39 10° NNE 03:44:27 41° E 03:49:12 10° SSE visible
02 Oct 4.3 05:19:29 10° NNW 05:23:07 20° WNW 05:26:44 10° WSW visible
03 Oct 5.6 03:03:58 10° NE 03:07:16 17° E 03:10:33 10° SE visible
03 Oct 3.3 04:41:37 10° N 04:46:27 45° WNW 04:51:15 10° SW visible
04 Oct 3.1 04:04:29 10° NNE 04:09:35 76° ESE 04:14:39 10° S visible
05 Oct 4.7 03:28:02 10° NE 03:32:32 31° E 03:37:00 10° SSE visible
05 Oct 4.0 05:07:14 10° NNW 05:11:22 26° WNW 05:15:29 10° WSW visible
06 Oct 5.8 02:53:02 10° ENE 02:55:19 13° E 02:57:34 10° ESE visible
06 Oct 3.0 04:29:38 10° N 04:34:38 60° WNW 04:39:37 10° SSW visible
07 Oct 3.5 03:52:43 10° NNE 03:57:43 57° E 04:02:42 10° S visible
08 Oct 5.1 03:16:33 10° NE 03:20:37 24° E 03:24:40 10° SSE visible
08 Oct 3.6 04:55:05 10° N 04:59:36 33° WNW 05:04:06 10° SW visible
09 Oct 2.9 04:17:43 10° N 04:22:49 78° WNW 04:27:52 10° SSW visible
